User: anonymous   Login
Location: Memmingen
(47.9830°N, 10.1733°E)
Time: 01:42:14
(UTC+02:00)
Language:

ISS - Orbit

View from above orbital plane
View from above orbital plane
View from above satellite
View from above satellite

Ground track
Ground track

The orbit data is extracted from the following two-line orbital elements,

1 25544U 98067A   18148.33082752  .00016717  00000-0  10270-3 0  9043
2 25544  51.6383 117.7018 0003752 130.2982 229.8499 15.54111642 35422
Epoch (UTC): 28 May 2018 07:56:23
Eccentricity: 0.0003752
inclination: 51.6383°
perigee height: 402 km
apogee height: 407 km
right ascension of ascending node: 117.7018°
argument of perigee: 130.2982°
revolutions per day: 15.54111642
mean anomaly at epoch: 229.8499°
orbit number at epoch: 3542

The dashed part of the orbit path shows where the satellite is in the earth's shadow,  

DLR